Location: Mount Cross
(36.6390°N, 79.4878°W)
Time: 01:11:54
(UTC+00:00)

SR - Pass Details

Date: 04 April 2023
Orbit: 580 x 867 km, 66.7° (Epoch: 08 June)

Event Time Altitude Azimuth Distance (km) Brightness Sun altitude
Rises 04:37:20 0° 202° (SSW) 3,028 - -46.5°
Reaches altitude 10° 04:39:43 10° 201° (SSW) 2,072 - -46.7°
Maximum altitude 04:44:22 75° 116° (ESE) 651 - -46.9°
Drops below altitude 10° 04:48:43 10° 31° (NNE) 1,949 - -47.1°
Sets 04:50:54 0° 30° (NNE) 2,832 - -47.2°
